« Back
NWS Peachtree City, Ga » Text Product » GA Regional Weather Roundup


Printer-friendly Version
Current Version              Previous Versions:   1  2  3  4  5  6  7  8  9  

Regional Weather Roundup

376
ASUS42 KFFC 291103
RWRGA
WEATHER ROUNDUP FOR GEORGIA
NATIONAL WEATHER SERVICE PEACHTREE CITY GA
600 AM EST THU JAN 29 2015

NOTE: "FAIR" INDICATES FEW OR NO CLOUDS BELOW 12,000 FEET WITH NO
SIGNIFICANT WEATHER AND/OR OBSTRUCTIONS TO VISIBILITY.

* = USE WITH CAUTION. THE STATIONS MARKED WITH AN ASTERISK MAY NOT
REPORT WEATHER SUCH AS PRECIPITATION, FOG, OR THUNDER AND ARE NOT
QUALITY CONTROLLED BY NWS.

THE REMARK "TC" DENOTES TEMPERATURE READING IN DEGREES CELSIUS.

GAZ001>058-291200-
NORTH GEORGIA

CITY           SKY/WX    TMP DP  RH WIND       PRES   REMARKS
ATLANTA        MOCLDY    36  28  73 SE6       30.26F WCI  31
ATHENS         PTCLDY    29  25  85 CALM      30.29F
CHAMBLEE       PTCLDY    30  27  88 CALM      30.26F
PEACHTREE CITY CLEAR     29  26  89 CALM      30.28F
ROME           PTCLDY    29  25  85 CALM      30.26R
WEST ATLANTA   PTCLDY    31  27  85 CALM      30.26F
GAINESVILLE    PTCLDY    36  24  62 SE5       30.27F WCI  32
CARTERSVILLE   PTCLDY    30  26  85 SE3       30.27R


CITY           SKY/WX    TMP DP  RH WIND       PRES   REMARKS
DALTON*        PTCLDY    32  28  86 CALM      30.26R
MARIETTA       PTCLDY    31  28  87 CALM      30.25F
$$

GAZ059>098-102>109-291200-
CENTRAL GEORGIA

CITY           SKY/WX    TMP DP  RH WIND       PRES   REMARKS
AUGUSTA-BUSH   PTCLDY    25  23  92 CALM      30.36R
AUGUSTA-DANIEL PTCLDY    36  24  62 CALM      30.34R
COLUMBUS       CLEAR     35  30  82 E3        30.30F
MACON          MOCLDY    30  28  92 CALM      30.32F
ROBINS AFB     MOCLDY    31  30  96 CALM      30.33R


CITY           SKY/WX    TMP DP  RH WIND       PRES   REMARKS
LAGRANGE*      CLEAR     32  31  94 CALM      30.28F
SYLVANIA*      CLEAR     29  29 100 CALM      30.36R
MILLEDGEVILLE* MOCLDY    30  30 100 CALM      30.32F
$$

GAZ099>101-110>166-291200-
SOUTH GEORGIA

CITY           SKY/WX    TMP DP  RH WIND       PRES   REMARKS
SAVANNAH       CLEAR     30  26  85 CALM      30.35R
VALDOSTA       CLEAR     32  30  92 CALM      30.34R
ALMA           PTCLDY    30  27  88 CALM      30.34R FOG
ST SIMONS      CLEAR     35  32  88 CALM      30.33R
FT STEWART     CLEAR     28  26  89 CALM      30.33R
ALBANY         PTCLDY    33  30  88 CALM      30.36R
HUNTER AFB     CLEAR     30  28  92 CALM      30.32R
MOODY AFB      CLEAR     33  30  91 CALM      30.32R
BRUNSWICK      CLEAR     32  32 100 CALM      30.34R


CITY           SKY/WX    TMP DP  RH WIND       PRES   REMARKS
BAINBRIDGE*    CLEAR     37  36  93 CALM      30.34R
MOULTRIE*      PTCLDY    34  34 100 CALM      30.34R
VIDALIA*       CLEAR     32  30  93 CALM      30.35R
WAYCROSS*      PTCLDY    34  32  95 CALM      30.34R
DOUGLAS*       CLEAR     34  32  93 CALM      30.35R
$$



USA.gov is the U.S. government's official web portal to all federal, state and local government web resources and services.